Time,TemperatureF,DewpointF,PressureIn,WindDirection,WindDirectionDegrees,WindSpeedMPH,WindSpeedGustMPH,Humidity,HourlyPrecipIn,Conditions,Clouds,dailyrainin,SoftwareType,DateUTC
2014-01-29 00:00:00,28.0,23.0,30.28,North,360,25.0,29.0,80,-99.99,,,-99.99,,2014-01-29 06:00:00,
2014-01-29 00:42:00,28.0,23.0,30.28,North,360,25.0,29.0,80,-99.99,,,-99.99,,2014-01-29 06:42:00,
2014-01-29 00:52:00,28.0,23.0,30.28,North,360,25.0,29.0,80,-99.99,,,-99.99,,2014-01-29 06:52:00,
2014-01-29 01:00:00,28.0,21.0,30.27,North,10,26.0,32.0,74,-99.99,,,-99.99,,2014-01-29 07:00:00,
2014-01-29 01:42:00,28.0,21.0,30.27,North,10,26.0,32.0,74,-99.99,,,-99.99,,2014-01-29 07:42:00,
2014-01-29 01:52:00,28.0,21.0,30.27,North,10,26.0,32.0,74,-99.99,,,-99.99,,2014-01-29 07:52:00,
2014-01-29 02:00:00,28.0,20.0,30.26,North,10,28.0,31.0,72,-99.99,,,-99.99,,2014-01-29 08:00:00,
2014-01-29 02:42:00,28.0,20.0,30.26,North,10,28.0,31.0,72,-99.99,,,-99.99,,2014-01-29 08:42:00,
2014-01-29 02:52:00,28.0,20.0,30.26,North,10,28.0,31.0,72,-99.99,,,-99.99,,2014-01-29 08:52:00,
2014-01-29 03:00:00,28.0,18.0,30.29,North,350,25.0,29.0,66,-99.99,,,-99.99,,2014-01-29 09:00:00,
2014-01-29 03:44:00,28.0,18.0,30.29,North,350,25.0,29.0,66,-99.99,,,-99.99,,2014-01-29 09:44:00,
2014-01-29 03:53:00,28.0,18.0,30.29,North,350,25.0,29.0,66,-99.99,,,-99.99,,2014-01-29 09:53:00,
2014-01-29 04:00:00,28.0,17.0,30.27,North,10,28.0,33.0,62,-99.99,,,-99.99,,2014-01-29 10:00:00,
2014-01-29 04:43:00,28.0,17.0,30.27,North,10,28.0,33.0,62,-99.99,,,-99.99,,2014-01-29 10:43:00,
2014-01-29 04:52:00,28.0,17.0,30.27,North,10,28.0,33.0,62,-99.99,,,-99.99,,2014-01-29 10:52:00,
2014-01-29 05:00:00,28.0,17.0,30.29,North,10,28.0,31.0,61,-99.99,,,-99.99,,2014-01-29 11:00:00,
2014-01-29 05:42:00,28.0,17.0,30.29,North,10,28.0,31.0,61,-99.99,,,-99.99,,2014-01-29 11:42:00,
2014-01-29 05:53:00,28.0,17.0,30.29,North,10,28.0,31.0,61,-99.99,,,-99.99,,2014-01-29 11:53:00,
2014-01-29 06:00:00,28.0,17.0,30.33,North,10,25.0,30.0,62,-99.99,,,-99.99,,2014-01-29 12:00:00,
2014-01-29 06:42:00,28.0,17.0,30.33,North,10,25.0,30.0,62,-99.99,,,-99.99,,2014-01-29 12:42:00,
2014-01-29 06:52:00,28.0,17.0,30.33,North,10,25.0,30.0,62,-99.99,,,-99.99,,2014-01-29 12:52:00,
2014-01-29 07:00:00,27.0,16.0,30.36,North,10,22.0,26.0,61,-99.99,,,-99.99,,2014-01-29 13:00:00,
2014-01-29 07:42:00,27.0,16.0,30.36,North,10,22.0,26.0,61,-99.99,,,-99.99,,2014-01-29 13:42:00,
2014-01-29 07:52:00,27.0,16.0,30.36,North,10,22.0,26.0,61,-99.99,,,-99.99,,2014-01-29 13:52:00,
2014-01-29 08:00:00,27.0,15.0,30.36,North,10,29.0,32.0,60,-99.99,,,-99.99,,2014-01-29 14:00:00,
2014-01-29 08:42:00,27.0,15.0,30.36,North,10,29.0,32.0,60,-99.99,,,-99.99,,2014-01-29 14:42:00,
2014-01-29 08:52:00,27.0,15.0,30.36,North,10,29.0,32.0,60,-99.99,,,-99.99,,2014-01-29 14:52:00,
2014-01-29 09:00:00,27.0,14.0,30.40,North,10,24.0,28.0,57,-99.99,,,-99.99,,2014-01-29 15:00:00,
2014-01-29 09:43:00,27.0,14.0,30.40,North,10,24.0,28.0,57,-99.99,,,-99.99,,2014-01-29 15:43:00,
2014-01-29 09:53:00,27.0,14.0,30.40,North,10,24.0,28.0,57,-99.99,,,-99.99,,2014-01-29 15:53:00,
2014-01-29 10:00:00,27.0,13.0,30.38,North,10,25.0,31.0,54,-99.99,,,-99.99,,2014-01-29 16:00:00,
2014-01-29 10:42:00,27.0,13.0,30.38,North,10,25.0,31.0,54,-99.99,,,-99.99,,2014-01-29 16:42:00,
2014-01-29 10:52:00,27.0,13.0,30.38,North,10,25.0,31.0,54,-99.99,,,-99.99,,2014-01-29 16:52:00,
2014-01-29 11:00:00,27.0,11.0,30.40,NNE,20,21.0,24.0,50,-99.99,,,-99.99,,2014-01-29 17:00:00,
2014-01-29 11:42:00,27.0,11.0,30.40,NNE,20,21.0,24.0,50,-99.99,,,-99.99,,2014-01-29 17:42:00,
2014-01-29 11:52:00,27.0,11.0,30.40,NNE,20,21.0,24.0,50,-99.99,,,-99.99,,2014-01-29 17:52:00,
2014-01-29 12:00:00,28.0,13.0,30.39,North,360,23.0,26.0,52,-99.99,,,-99.99,,2014-01-29 18:00:00,
2014-01-29 12:43:00,28.0,13.0,30.39,North,360,23.0,26.0,52,-99.99,,,-99.99,,2014-01-29 18:43:00,
2014-01-29 12:53:00,28.0,13.0,30.39,North,360,23.0,26.0,52,-99.99,,,-99.99,,2014-01-29 18:53:00,
2014-01-29 13:00:00,29.0,11.0,30.37,North,10,24.0,29.0,46,-99.99,,,-99.99,,2014-01-29 19:00:00,
2014-01-29 13:42:00,29.0,11.0,30.37,North,10,24.0,29.0,46,-99.99,,,-99.99,,2014-01-29 19:42:00,
2014-01-29 13:52:00,29.0,11.0,30.37,North,10,24.0,29.0,46,-99.99,,,-99.99,,2014-01-29 19:52:00,
2014-01-29 14:00:00,30.0,9.0,30.34,North,10,22.0,25.0,41,-99.99,,,-99.99,,2014-01-29 20:00:00,
2014-01-29 14:42:00,30.0,9.0,30.34,North,10,22.0,25.0,41,-99.99,,,-99.99,,2014-01-29 20:42:00,
2014-01-29 14:52:00,30.0,9.0,30.34,North,10,22.0,25.0,41,-99.99,,,-99.99,,2014-01-29 20:52:00,
2014-01-29 15:00:00,31.0,8.0,30.34,NNE,20,22.0,25.0,37,-99.99,,,-99.99,,2014-01-29 21:00:00,
2014-01-29 15:43:00,31.0,8.0,30.34,NNE,20,22.0,25.0,37,-99.99,,,-99.99,,2014-01-29 21:43:00,
2014-01-29 15:53:00,31.0,8.0,30.34,NNE,20,22.0,25.0,37,-99.99,,,-99.99,,2014-01-29 21:53:00,
2014-01-29 16:00:00,32.0,9.0,30.34,North,10,21.0,24.0,37,-99.99,,,-99.99,,2014-01-29 22:00:00,
2014-01-29 16:43:00,32.0,9.0,30.34,North,10,21.0,24.0,37,-99.99,,,-99.99,,2014-01-29 22:43:00,
2014-01-29 16:53:00,32.0,9.0,30.34,North,10,21.0,24.0,37,-99.99,,,-99.99,,2014-01-29 22:53:00,
2014-01-29 18:00:00,33.0,11.0,30.35,North,10,14.0,17.0,38,-99.99,,,-99.99,,2014-01-30 00:00:00,
2014-01-29 18:42:00,33.0,11.0,30.35,North,10,14.0,17.0,38,-99.99,,,-99.99,,2014-01-30 00:42:00,
2014-01-29 18:52:00,33.0,11.0,30.35,North,10,14.0,17.0,38,-99.99,,,-99.99,,2014-01-30 00:52:00,
2014-01-29 19:00:00,33.0,9.0,30.35,North,10,17.0,21.0,36,-99.99,,,-99.99,,2014-01-30 01:00:00,
2014-01-29 19:42:00,33.0,9.0,30.35,North,10,17.0,21.0,36,-99.99,,,-99.99,,2014-01-30 01:42:00,
2014-01-29 19:52:00,33.0,9.0,30.35,North,10,17.0,21.0,36,-99.99,,,-99.99,,2014-01-30 01:52:00,
2014-01-29 20:00:00,33.0,11.0,30.37,North,10,17.0,22.0,40,-99.99,,,-99.99,,2014-01-30 02:00:00,
2014-01-29 20:52:00,33.0,11.0,30.37,North,10,17.0,22.0,40,-99.99,,,-99.99,,2014-01-30 02:52:00,
2014-01-29 21:00:00,32.0,7.0,30.38,North,10,20.0,23.0,34,-99.99,,,-99.99,,2014-01-30 03:00:00,
2014-01-29 21:43:00,32.0,7.0,30.38,North,10,20.0,23.0,34,-99.99,,,-99.99,,2014-01-30 03:43:00,
2014-01-29 21:52:00,32.0,7.0,30.38,North,10,20.0,23.0,34,-99.99,,,-99.99,,2014-01-30 03:52:00,
2014-01-29 22:00:00,32.0,9.0,30.37,NNE,30,18.0,23.0,36,-99.99,,,-99.99,,2014-01-30 04:00:00,
2014-01-29 22:42:00,32.0,9.0,30.37,NNE,30,18.0,23.0,36,-99.99,,,-99.99,,2014-01-30 04:42:00,
2014-01-29 22:53:00,32.0,9.0,30.37,NNE,30,18.0,23.0,36,-99.99,,,-99.99,,2014-01-30 04:53:00,
2014-01-29 23:00:00,31.0,7.0,30.35,NE,40,18.0,22.0,35,-99.99,,,-99.99,,2014-01-30 05:00:00,
2014-01-29 23:42:00,31.0,7.0,30.35,NE,40,18.0,22.0,35,-99.99,,,-99.99,,2014-01-30 05:42:00,
2014-01-29 23:52:00,31.0,7.0,30.35,NE,40,18.0,22.0,35,-99.99,,,-99.99,,2014-01-30 05:52:00,